Wind_Speed
24 23 24 23 22 22 23 24 25 23 23 23 23 23 22 22 21 20 19 18 18 18 17 17 18 18 17 17 17 17 17 17 15 16 16 14 14 13 12 13 14 13 11 10 9 10 10 9 8 7 7 7 6 6 7 6 6 6 6 6 6 7 8 8 7 9 12 11 12 13 11 11 11 7 7 8 8 9 9 10 11 11 14 15 13
21 19 18 18 20 22 23 23 23 24 23 23 24 24 23 23 23 21 21 20 20 19 19 18 18 18 18 18 18 18 18 18 16 16 17 16 15 13 12 13 13 12 12 12 11 11 10 10 9 8 9 8 7 7 7 7 7 8 8 9 9 9 9 10 9 8 10 11 12 12 11 12 12 11 10 10 9 11 13 14 13 11 12 13 13
20 17 15 15 14 15 20 24 24 24 24 25 24 24 24 24 24 23 22 21 21 21 21 20 19 19 18 19 19 18 19 19 18 17 17 17 17 15 15 15 14 13 13 13 13 12 11 10 10 10 10 10 10 9 8 8 7 7 8 9 9 9 9 10 10 9 10 11 12 12 12 12 12 11 10 10 12 13 14 14 12 11 12 12 13
19 19 19 21 18 14 17 21 25 25 25 25 26 25 24 24 24 24 23 22 22 22 22 21 22 21 19 19 20 20 19 19 19 18 18 18 18 17 16 16 16 15 15 14 14 14 13 13 12 12 11 11 11 10 9 9 9 8 8 8 8 9 9 9 10 10 10 11 13 13 13 13 13 13 12 12 14 14 15 15 14 14 14 12 13
11 12 14 19 22 21 21 23 25 27 27 26 26 27 26 25 25 25 24 23 23 24 24 23 23 25 23 20 21 21 20 19 19 19 18 17 17 17 16 16 15 15 15 15 14 14 14 14 14 13 12 13 12 11 11 10 10 9 9 10 10 10 10 11 11 11 12 13 14 14 13 14 14 14 14 14 15 14 13 14 14 14 14 13 13
8 12 17 17 20 26 27 27 28 28 29 28 27 28 27 25 25 26 25 24 23 24 25 25 24 25 26 23 22 22 22 20 20 20 18 17 18 17 16 16 16 15 15 15 15 15 15 15 14 14 14 13 12 12 12 12 11 11 11 11 11 10 10 11 11 12 13 14 14 15 15 15 15 15 15 14 16 15 14 15 15 14 15 15 13
8 12 17 20 23 27 29 30 32 30 29 29 27 27 28 26 25 25 26 25 24 23 24 26 25 25 26 25 23 23 24 23 22 21 20 19 19 18 18 17 17 17 16 16 16 16 16 16 16 15 15 15 15 14 13 13 13 13 13 12 11 11 11 11 11 12 13 14 15 15 15 15 16 16 15 14 14 15 14 14 16 17 17 14 11
9 8 11 14 17 21 22 21 25 29 28 30 29 27 26 27 27 26 26 25 24 23 23 25 25 25 25 26 25 23 24 24 23 23 23 21 19 19 19 19 18 18 18 17 17 17 17 17 17 17 17 17 17 16 15 15 15 14 14 13 12 13 13 12 12 13 13 14 14 14 14 15 15 16 15 14 14 15 15 15 16 18 15 12 11
7 8 10 10 11 14 16 17 21 28 28 25 28 29 27 26 25 26 27 26 24 23 23 23 25 25 24 25 25 24 24 25 24 24 24 24 22 20 20 21 20 20 19 19 18 18 18 18 17 18 19 20 20 20 18 17 16 15 14 13 13 13 13 13 13 13 14 14 14 14 14 15 16 16 17 18 18 19 19 17 17 17 15 13 13
1 3 6 8 10 11 13 18 20 22 28 28 22 21 24 25 24 23 25 26 25 25 24 22 23 25 26 26 26 24 24 24 25 27 26 26 25 23 22 23 22 22 21 21 21 20 20 19 19 19 20 21 22 23 22 20 19 17 16 14 13 13 13 14 14 14 14 14 14 14 14 15 16 17 18 19 19 19 20 19 19 20 18 15 13
7 5 4 3 5 8 9 14 17 17 19 22 23 23 18 15 18 20 22 23 23 24 25 25 23 23 24 25 26 25 25 24 26 28 29 28 27 25 24 24 24 24 24 23 23 22 21 21 21 20 20 21 21 21 22 22 21 20 20 19 18 17 17 16 16 16 16 15 16 15 15 16 17 18 18 18 17 17 17 15 15 15 13 10 10
12 9 8 8 7 5 7 9 11 11 12 13 16 20 21 20 18 16 14 18 20 21 23 24 24 23 23 24 25 26 25 25 26 29 30 30 29 27 26 24 24 25 25 25 25 24 24 23 22 21 20 21 21 21 21 22 22 23 23 24 24 24 23 22 21 20 19 17 17 16 16 17 18 18 18 18 17 16 16 15 13 12 11 11 11
13 13 11 10 9 8 5 5 6 9 11 12 14 14 12 12 18 21 18 14 15 18 20 22 23 23 23 23 24 26 26 26 27 29 31 33 33 30 27 25 25 25 25 26 26 25 25 25 23 23 21 21 22 24 26 27 27 27 27 27 27 26 26 27 27 27 26 23 21 21 21 21 20 20 20 18 17 17 17 18 18 17 16 16 16
14 14 14 12 10 9 8 7 6 6 10 14 14 13 15 18 19 22 21 18 16 17 18 20 22 24 26 26 23 22 25 27 28 29 31 33 35 35 32 28 26 26 26 27 27 27 26 26 26 26 25 23 23 22 23 26 28 28 28 27 27 27 27 27 27 29 30 31 29 29 29 28 27 27 26 23 21 20 19 19 19 18 18 19 20
14 14 14 13 12 9 8 8 7 6 6 11 15 15 17 17 17 21 25 23 22 21 18 18 21 23 25 28 27 24 23 24 27 30 33 34 34 36 36 33 29 27 27 27 27 27 28 28 28 29 28 28 28 26 23 22 22 25 26 26 27 27 28 29 29 29 31 33 35 36 35 34 33 33 33 30 27 25 24 23 23 22 21 20 21
14 14 14 14 13 11 9 8 7 7 7 7 11 13 15 16 14 14 17 18 21 25 23 20 20 21 21 23 26 27 26 25 25 26 30 34 35 36 38 37 32 30 29 28 29 29 29 28 29 29 30 30 30 30 29 26 23 23 23 24 25 25 27 29 29 29 28 29 31 34 35 35 35 35 35 33 31 29 25 23 23 22 21 20 20
15 14 14 13 13 12 12 10 9 9 9 8 9 11 12 12 12 13 14 16 18 22 24 23 22 21 21 22 24 26 27 27 27 27 28 31 34 37 39 38 35 32 31 29 29 29 29 30 30 30 30 30 30 29 29 29 29 28 26 25 25 24 25 25 24 25 26 25 27 28 29 30 31 32 33 33 33 31 26 23 21 20 19 17 16
14 14 14 13 12 12 14 13 12 12 12 11 10 11 11 10 11 12 14 16 20 22 23 25 25 25 26 27 25 26 28 28 28 30 30 30 32 36 38 37 34 32 31 30 29 29 29 30 31 32 33 33 32 30 29 28 29 30 30 29 27 27 27 25 23 24 25 25 27 28 29 30 30 30 31 31 32 31 29 29 27 23 19 17 17
12 12 13 12 12 14 14 14 15 16 15 14 13 12 12 12 11 12 13 15 18 21 22 23 25 26 27 29 30 29 31 31 30 30 31 31 32 34 36 36 33 31 30 28 28 29 30 30 31 33 35 36 35 33 31 30 31 31 31 29 29 30 30 27 25 25 25 25 25 27 30 31 32 33 33 32 32 32 32 33 31 27 23 22 22
11 10 11 11 10 12 13 14 16 17 16 16 17 15 14 13 13 13 13 14 15 19 21 20 22 24 24 26 28 30 31 31 32 32 32 33 33 34 35 34 32 31 29 27 26 26 27 29 31 33 35 36 36 36 34 32 32 32 31 29 30 32 30 26 25 26 26 25 26 26 26 26 27 30 32 33 34 34 33 33 32 30 27 26 26
11 11 11 10 9 10 11 12 13 14 14 16 17 18 18 16 15 14 14 15 15 17 19 20 22 24 25 25 27 28 28 29 31 32 33 34 34 35 35 35 33 30 28 26 25 25 25 26 28 30 31 33 34 35 36 36 35 34 33 33 34 33 29 24 23 23 23 24 24 24 24 24 24 26 27 29 32 33 34 34 34 34 33 30 29
11 11 11 10 9 9 10 10 11 11 12 14 16 18 19 19 17 15 14 15 15 16 19 20 21 24 25 25 25 24 25 27 29 29 30 32 35 36 36 35 33 30 27 25 24 24 25 25 25 26 27 28 29 30 32 34 37 38 38 38 38 36 32 29 27 25 24 23 23 22 22 21 21 22 24 25 27 28 30 31 32 33 34 34 33
10 10 10 10 10 11 10 9 9 9 9 10 12 15 16 17 18 17 15 14 15 15 17 18 18 20 23 25 26 24 23 25 26 24 26 29 32 35 36 35 34 30 27 24 23 23 23 23 24 25 26 26 28 28 29 30 33 36 38 39 39 38 37 35 32 30 28 27 26 25 25 23 22 21 21 22 23 24 25 27 28 28 30 31 32
10 9 9 10 12 12 10 9 9 9 8 8 8 10 12 13 15 18 16 14 13 14 15 16 18 20 21 23 26 26 25 26 27 28 31 32 28 26 26 29 31 31 28 25 23 23 22 22 22 22 23 24 25 27 28 30 31 33 34 34 35 36 37 38 37 34 30 28 28 28 28 28 28 28 27 25 23 22 23 24 26 27 29 30 30
11 10 11 12 12 11 11 12 11 9 8 8 8 10 11 10 11 14 15 15 14 13 12 12 14 18 20 21 23 23 22 22 21 21 22 24 25 24 24 25 27 29 30 30 28 25 23 23 22 21 21 21 21 22 24 27 30 32 32 32 33 34 36 38 38 34 30 29 29 29 29 30 30 31 32 31 28 26 25 25 25 26 27 27 28
13 13 13 13 12 12 12 13 12 10 8 9 11 12 11 11 10 10 11 14 14 13 12 12 13 16 16 17 19 19 18 18 18 17 16 17 20 23 24 25 26 28 31 33 33 32 30 29 27 27 27 27 27 27 27 27 27 28 29 30 32 35 36 38 37 34 32 31 30 28 29 30 29 30 30 30 32 33 32 29 27 27 26 25 24
14 14 14 13 13 14 14 13 12 12 10 9 10 11 11 11 11 11 11 12 11 10 10 11 12 13 12 14 16 15 15 15 16 18 18 15 15 17 19 20 21 24 27 31 34 35 36 35 34 33 32 33 34 34 33 31 30 29 29 30 32 34 36 37 37 35 34 33 30 29 29 28 28 28 28 29 31 33 33 31 30 29 28 26 24
14 14 15 14 13 14 14 13 13 13 10 8 8 9 10 11 11 11 11 10 9 9 10 12 14 12 11 12 12 11 11 13 15 17 15 12 11 12 13 12 12 14 18 22 26 29 32 33 33 32 32 34 36 36 36 36 35 35 35 35 35 35 35 36 36 35 34 32 29 28 27 27 28 28 29 29 30 30 29 29 30 31 30 27 25
15 15 15 15 14 14 14 13 12 11 9 9 10 10 10 10 11 13 14 12 11 11 13 17 19 18 15 15 14 12 12 15 17 17 17 15 12 11 10 9 9 11 14 15 17 19 21 23 23 22 22 24 27 29 30 31 33 34 35 35 36 36 36 36 36 36 34 32 29 28 27 27 28 28 28 28 30 29 28 28 30 31 30 28 27
15 15 14 14 13 13 13 13 12 12 12 13 13 13 13 13 14 16 17 17 17 16 17 19 20 20 20 21 19 16 16 17 17 18 20 20 18 18 20 18 17 17 18 18 19 20 19 19 19 18 18 19 20 21 23 25 27 28 29 30 32 32 32 33 35 36 34 31 29 28 27 26 26 26 25 27 30 30 29 29 30 30 29 28 28
15 15 14 14 14 14 14 14 14 14 14 14 15 15 16 16 15 15 17 17 17 15 14 14 15 14 15 17 19 20 20 21 21 22 23 23 21 22 26 26 24 24 24 23 24 24 22 20 19 19 18 19 21 21 21 22 24 24 24 26 27 29 30 30 30 29 29 30 30 29 28 27 26 25 26 29 31 31 30 31 31 31 30 29 29
16 16 16 17 17 17 16 15 15 14 15 15 15 15 16 17 16 15 14 14 14 13 12 12 11 10 10 12 15 16 16 17 18 20 21 21 19 19 22 24 25 25 24 23 24 25 22 20 20 20 19 20 22 23 22 23 24 24 23 23 24 26 29 30 28 26 26 26 25 23 22 22 25 28 32 35 33 30 29 29 29 30 31 31 31
16 17 17 18 18 18 18 17 16 14 14 14 15 15 16 16 17 16 15 14 14 14 13 11 10 10 11 9 9 11 13 14 15 16 17 18 18 18 20 22 23 24 24 24 26 26 23 22 23 23 21 22 23 23 23 25 26 26 26 26 25 24 24 25 28 28 23 16 12 13 18 24 31 36 36 33 30 29 29 29 29 29 29 28 30
18 18 19 20 21 21 20 19 17 16 15 15 15 16 17 17 17 17 18 16 15 14 13 12 11 12 10 7 7 12 14 13 13 13 14 16 16 17 19 21 22 23 24 25 26 26 24 24 26 26 24 24 24 23 24 26 27 27 28 27 26 26 26 24 20 18 18 17 19 23 28 33 37 37 31 26 27 29 29 29 29 28 28 28 28
20 20 20 20 21 21 21 20 20 19 17 16 16 16 17 17 17 17 17 17 16 16 15 14 13 10 9 9 12 14 12 10 9 9 10 14 16 17 19 21 22 23 25 26 27 27 25 25 28 29 26 26 26 26 27 28 28 28 29 29 27 25 22 14 5 8 16 27 33 34 34 35 37 36 31 28 30 31 30 29 29 29 29 29 28
21 20 19 19 19 20 21 21 20 19 18 16 16 16 16 16 16 16 16 17 18 18 17 16 14 12 12 13 14 12 8 7 8 8 10 14 17 19 21 20 18 19 22 25 27 28 28 29 30 30 29 27 26 26 26 27 28 29 29 27 22 15 11 8 8 7 19 28 30 32 35 38 39 38 34 31 32 33 33 32 31 31 31 30 28
21 21 20 19 19 21 22 22 21 20 19 18 17 16 16 17 17 17 17 18 18 17 17 17 16 14 13 12 10 8 7 8 9 10 12 14 15 17 21 22 20 18 20 21 22 23 25 27 28 29 29 27 25 24 24 24 25 26 25 23 20 15 9 4 9 13 20 24 25 27 33 37 40 40 37 35 35 35 34 33 31 31 33 31 28
21 21 21 21 21 23 25 26 25 24 22 20 18 16 17 18 18 17 17 17 17 17 17 16 15 14 12 10 8 8 9 10 10 10 11 12 13 14 16 19 21 21 21 22 21 21 22 23 23 23 23 23 21 21 20 19 19 19 18 18 19 17 14 14 15 17 17 19 22 25 28 31 33 35 34 34 35 34 33 33 31 30 30 30 29
20 22 23 24 25 26 26 27 26 25 24 21 19 17 16 16 16 17 17 17 17 18 17 15 14 13 11 9 9 9 9 9 10 11 12 13 13 13 14 15 17 18 18 19 19 19 18 16 15 14 14 14 13 13 13 14 15 16 17 18 19 18 15 15 19 22 21 20 21 23 24 26 29 29 28 30 34 34 32 32 32 31 29 28 29
20 21 22 23 25 25 24 24 24 23 22 21 20 18 17 17 17 18 19 19 19 18 16 15 14 13 12 11 11 11 10 9 11 13 13 13 13 13 14 14 14 14 15 16 17 18 18 18 17 18 18 16 15 15 15 16 16 16 14 14 14 14 14 14 19 22 21 18 18 21 25 28 31 31 29 31 36 38 34 31 31 31 30 29 30
20 20 21 22 23 24 24 24 23 21 21 22 21 19 18 18 18 18 19 19 18 17 17 17 16 14 13 12 11 10 9 10 12 14 14 14 14 13 15 16 17 17 18 19 22 24 26 26 26 25 23 22 21 21 21 20 18 17 16 14 13 14 13 12 13 14 14 12 13 17 22 27 29 30 31 32 34 34 34 32 31 30 29 30 31
19 20 20 20 21 22 22 24 24 23 22 22 21 20 19 19 19 18 18 18 18 18 18 18 17 15 14 11 9 11 12 11 11 14 15 14 14 14 16 20 22 23 23 23 24 27 28 28 27 25 24 24 25 24 24 23 22 21 21 20 21 21 19 16 14 13 12 13 15 16 17 19 21 24 30 34 34 33 32 31 30 28 27 28 29
20 21 20 20 20 20 20 21 23 24 24 22 20 20 20 20 19 18 17 17 18 18 17 17 18 17 15 11 12 16 15 11 10 12 13 13 13 14 15 17 20 22 23 23 24 25 26 26 26 24 23 22 22 21 21 22 23 23 24 23 24 24 23 21 18 14 12 14 18 20 20 21 21 22 24 27 29 29 28 27 27 27 27 27 27
20 20 20 20 20 20 21 20 21 23 26 25 22 19 19 19 18 18 18 18 17 16 16 18 18 16 13 12 15 16 14 12 12 12 12 12 13 13 13 14 17 20 22 22 22 23 23 24 24 24 23 21 21 20 21 21 22 23 23 23 23 24 23 22 20 17 14 15 17 19 20 22 25 28 28 27 24 22 23 23 24 25 26 27 27
20 20 20 20 19 20 21 21 21 23 25 25 22 19 18 18 18 18 18 18 17 16 14 14 13 11 10 11 14 15 14 14 13 12 12 12 12 13 13 14 15 17 19 20 20 20 20 20 21 21 21 20 20 20 20 20 20 19 19 19 20 21 21 20 19 18 17 17 16 16 16 18 21 25 29 30 28 26 25 26 26 26 27 27 26
21 20 20 21 20 18 19 20 21 21 23 24 23 20 18 16 15 15 15 15 15 13 10 8 8 9 10 11 13 15 15 14 13 12 12 13 12 12 12 14 15 15 15 15 16 16 16 16 16 16 17 17 17 16 16 16 16 15 15 15 16 17 18 19 18 17 17 16 14 14 15 16 18 20 23 25 26 27 27 27 27 27 27 27 26
21 21 21 21 20 19 18 18 18 19 20 22 24 23 21 17 14 13 14 14 12 9 7 6 7 9 10 12 13 15 15 14 13 12 12 13 12 11 11 12 13 14 13 12 13 13 13 12 12 12 11 12 12 12 13 13 12 12 13 13 15 15 16 16 15 15 14 13 12 12 14 15 16 18 19 20 21 22 23 23 23 23 23 24 25
21 21 21 20 20 20 19 17 17 17 17 19 21 21 20 18 15 13 14 14 11 8 7 8 8 8 10 12 13 14 14 14 14 13 12 12 12 11 10 10 11 11 10 9 10 9 8 8 9 8 8 8 9 10 11 12 12 12 12 12 13 14 14 13 13 12 11 9 8 10 13 14 15 15 15 16 18 19 19 19 19 17 17 17 17
20 20 21 20 20 20 19 17 17 16 16 17 17 16 15 14 12 11 10 10 8 7 7 7 8 8 10 12 14 14 15 14 13 12 12 11 10 10 10 9 9 8 7 6 6 5 5 7 7 7 7 8 9 9 10 11 11 11 12 12 13 13 13 12 12 10 8 6 6 8 10 10 10 9 9 9 10 10 10 10 10 9 8 8 8
19 19 20 20 19 19 19 17 16 16 15 15 15 13 11 10 9 8 7 6 5 6 7 7 7 8 10 12 13 14 13 12 11 10 10 9 8 8 8 8 7 6 6 5 5 4 3 4 5 4 5 7 8 8 9 11 12 12 12 13 13 13 13 11 10 8 5 4 4 5 4 3 2 1 1 0 1 1 1 1 2 3 3 4 5
18 18 18 19 19 19 19 18 16 14 12 11 11 10 10 9 8 7 6 4 4 5 6 6 7 8 10 11 12 11 11 10 9 8 8 7 6 5 6 5 5 4 4 4 4 4 4 4 4 3 4 6 7 8 9 11 12 12 11 10 10 10 9 8 7 5 3 3 3 2 3 5 5 6 7 8 8 8 9 10 10 11 12 12 13
Wind_Direction
201 196 196 197 197 197 199 201 201 202 204 201 200 202 201 199 200 200 198 196 196 195 195 195 192 192 193 192 192 192 191 193 194 194 196 200 204 207 207 207 208 213 211 203 214 224 209 200 215 221 221 228 228 234 239 227 216 219 221 228 241 241 246 254 253 271 287 288 289 293 294 298 302 305 299 290 292 295 294 303 305 298 294 287 279
211 200 202 207 203 200 200 202 204 205 206 205 204 204 203 202 200 199 199 198 198 197 196 198 198 195 197 197 196 195 195 194 196 198 198 199 202 204 205 206 206 208 210 209 214 221 213 204 208 217 222 224 228 237 242 235 224 222 219 217 229 235 238 247 247 255 276 282 287 288 284 286 290 290 291 288 287 288 288 293 297 297 297 289 283
220 209 217 227 225 218 209 203 204 208 209 207 207 207 204 204 202 200 200 199 199 199 198 199 200 199 200 201 200 200 199 198 198 200 201 201 202 203 206 207 205 204 208 211 214 219 223 220 215 218 224 223 222 229 240 246 242 239 234 223 227 234 238 245 246 249 269 280 287 291 293 295 294 294 293 288 288 288 284 288 295 295 294 296 295
212 207 216 219 221 239 243 224 208 206 212 210 209 209 206 204 204 202 201 200 199 200 200 200 200 202 204 205 203 204 203 201 201 204 206 205 205 208 211 209 205 205 209 213 213 216 219 222 222 222 225 225 225 227 234 242 247 250 250 243 239 241 246 252 251 251 260 271 280 287 293 297 296 296 295 289 287 286 283 285 290 287 286 290 293
207 203 215 217 213 220 241 249 229 211 211 213 210 210 208 205 203 203 204 204 201 199 200 202 200 201 205 207 205 206 207 204 204 207 210 209 208 211 215 215 210 209 212 214 216 218 218 220 223 224 226 230 229 227 231 237 242 243 246 249 247 244 245 246 248 252 255 261 271 278 284 288 288 287 287 284 282 283 284 286 288 288 288 286 283
224 218 221 224 225 220 223 241 245 226 213 214 213 210 210 208 204 203 206 208 205 200 199 202 202 201 204 207 208 208 209 209 208 208 210 211 212 212 215 218 217 217 218 218 219 222 222 223 224 224 226 230 231 230 230 232 236 240 243 246 248 252 252 246 244 248 252 258 267 273 278 280 281 280 280 279 277 276 279 282 284 287 292 291 282
235 230 227 226 230 227 219 227 244 240 221 215 216 212 210 210 207 203 204 208 209 206 202 202 203 204 204 205 209 210 209 210 211 211 211 213 213 212 214 216 218 219 221 223 224 225 226 226 226 227 227 228 231 232 233 233 234 236 240 242 246 251 258 258 255 251 250 254 259 264 270 274 275 275 278 280 275 268 268 272 278 285 289 287 279
235 230 237 235 229 230 228 236 262 267 245 224 219 217 213 211 210 205 203 207 212 212 208 203 202 205 206 206 208 210 210 211 212 212 212 214 215 215 215 216 217 219 221 223 225 226 227 226 226 227 227 228 230 230 232 234 235 235 236 239 242 245 247 251 257 260 258 257 258 261 268 274 277 278 283 286 281 273 269 266 269 277 279 275 277
238 231 236 249 250 244 243 254 285 301 290 256 230 221 217 214 211 207 202 205 211 215 216 210 203 202 206 208 208 211 212 211 212 213 212 213 215 216 217 217 218 219 220 221 224 225 226 227 228 228 228 229 232 231 230 229 231 234 235 235 238 241 243 246 250 257 262 264 265 268 270 273 276 277 276 273 270 269 267 261 259 264 267 268 273
356 276 257 264 273 271 256 249 262 295 309 301 279 249 231 220 214 210 205 204 208 213 219 220 211 203 202 207 210 212 215 215 214 213 213 213 214 215 218 219 219 220 221 221 222 223 225 227 230 231 232 234 235 234 230 226 226 230 232 232 234 237 241 243 245 249 255 259 262 264 266 267 269 271 271 270 270 268 263 257 255 256 257 260 262
50 27 4 342 303 294 281 259 256 275 296 302 306 307 297 264 236 222 211 207 208 211 214 221 224 215 205 205 209 213 218 220 218 215 214 214 214 215 218 220 220 221 222 223 224 224 224 227 230 233 237 239 239 236 231 228 228 232 235 237 238 238 238 239 241 244 247 250 254 256 257 260 264 266 269 274 278 277 273 269 265 260 254 254 261
38 36 33 36 24 341 291 264 267 291 295 274 276 300 322 323 305 284 249 223 216 214 213 217 225 227 219 211 210 215 220 223 223 219 216 216 216 216 218 221 223 222 222 224 225 225 226 228 230 233 235 237 238 237 234 233 235 241 245 248 249 248 246 242 241 242 242 244 249 251 253 257 263 265 268 273 279 283 284 285 286 283 278 275 274
31 30 30 34 32 22 353 305 292 302 298 274 259 260 264 274 286 292 293 278 254 239 228 222 223 229 233 230 219 215 219 224 226 224 220 219 218 217 217 220 223 224 223 224 225 226 227 229 230 233 236 237 237 234 233 235 239 244 249 252 254 254 253 250 247 246 246 246 248 250 251 254 258 260 262 267 275 280 282 281 282 280 278 278 276
31 27 28 31 26 23 22 9 351 321 291 278 271 254 231 226 232 239 247 261 269 264 253 242 234 229 234 242 240 229 223 223 225 226 225 224 221 219 219 219 221 224 225 224 225 226 227 229 230 233 236 238 240 238 235 234 236 241 245 248 251 253 254 253 250 248 248 248 248 250 252 253 254 256 259 259 263 268 271 273 275 273 272 275 276
34 27 26 26 18 12 17 14 5 357 320 286 280 269 247 235 227 223 226 234 241 247 251 254 253 245 236 238 245 247 241 234 229 225 225 227 225 223 221 221 222 225 227 226 225 225 226 228 230 233 235 237 239 241 241 238 235 235 238 242 248 252 255 256 256 255 254 252 251 253 256 258 258 258 260 260 259 261 265 269 271 270 271 273 273
32 30 27 21 12 4 3 0 355 360 354 316 298 287 262 246 239 234 239 245 243 238 236 242 256 263 257 249 247 246 244 246 245 237 228 227 227 225 223 223 224 227 230 231 231 230 229 229 230 232 234 235 237 238 239 240 239 237 236 239 244 250 254 259 262 263 262 260 258 258 260 263 264 264 265 263 261 260 263 267 269 265 263 265 267
25 25 25 19 10 4 1 357 351 350 348 333 314 301 280 264 258 253 256 264 260 248 240 240 247 253 254 260 264 258 248 244 247 248 241 233 230 226 223 223 224 228 231 233 235 237 237 236 235 235 236 236 237 237 237 238 239 240 240 242 244 246 250 255 261 264 264 264 264 265 265 265 265 266 267 266 264 261 258 259 262 259 255 257 259
20 17 15 14 7 3 6 6 359 352 346 338 325 312 301 287 273 262 260 263 263 257 250 245 244 241 236 239 251 262 262 253 245 245 246 241 236 231 226 223 225 229 232 234 237 239 241 242 242 242 242 242 241 240 239 237 237 238 240 243 245 247 248 250 255 260 263 263 262 263 264 264 264 263 264 264 263 259 253 253 258 259 257 257 259
15 11 7 6 2 1 6 7 3 1 360 356 349 330 309 295 279 264 257 258 261 263 259 251 247 245 241 237 235 241 253 256 249 244 243 241 239 235 229 225 225 229 232 235 238 241 243 245 245 245 246 247 246 245 244 241 240 240 241 242 245 248 250 250 252 255 260 262 262 260 259 260 261 261 261 261 260 257 253 252 254 255 256 259 262
5 4 360 359 3 2 4 5 2 2 3 4 2 350 327 308 297 284 273 269 268 267 266 263 261 259 256 251 245 240 242 249 249 246 243 240 238 235 229 225 225 229 232 235 238 241 244 245 246 246 246 247 248 248 247 245 244 244 242 242 244 248 251 252 252 255 257 260 263 264 264 264 263 261 261 260 258 256 254 253 252 251 251 254 258
354 354 351 354 1 358 357 360 0 1 2 2 359 353 344 332 318 305 292 284 281 277 273 272 273 272 266 260 259 256 252 251 250 248 245 241 238 234 229 226 227 230 233 235 238 241 243 244 245 247 247 248 248 248 247 247 247 246 244 243 245 249 252 252 253 255 258 262 265 266 266 265 262 260 260 261 259 256 255 254 252 249 247 247 251
344 344 343 347 351 346 344 345 346 350 356 360 359 353 345 339 332 324 315 304 297 289 282 277 275 274 270 264 263 266 267 265 261 255 252 249 242 235 231 231 231 232 234 236 239 241 243 245 246 247 248 249 248 247 247 246 246 246 247 247 249 250 251 251 253 255 258 263 267 268 267 264 260 256 254 255 255 253 253 254 255 253 249 247 247
333 333 336 342 341 335 331 331 335 337 334 341 352 348 339 334 329 324 324 323 314 298 287 284 281 276 273 271 269 270 276 281 281 281 281 273 254 238 233 233 233 231 233 236 240 242 245 248 250 251 251 251 251 251 249 247 245 245 247 249 250 251 251 252 253 254 256 258 260 262 263 263 262 260 255 251 248 246 246 248 250 252 252 250 249
322 322 327 333 332 329 326 319 319 321 319 324 332 326 320 320 317 315 319 323 316 299 284 284 287 284 281 279 277 277 281 285 289 295 298 291 275 255 245 242 238 234 233 236 241 245 249 251 252 252 251 250 251 251 251 250 248 248 249 249 249 250 250 251 251 252 254 254 254 255 257 257 258 258 256 254 252 249 248 246 245 247 250 253 254
325 324 324 323 320 323 327 323 315 309 313 318 310 301 299 291 288 301 311 310 304 294 280 278 283 282 281 283 285 289 294 297 302 311 310 298 285 271 260 252 246 240 235 236 239 244 249 251 253 256 258 260 260 258 255 251 249 250 250 249 248 247 246 247 249 249 249 249 249 251 253 253 254 255 256 255 255 254 255 255 252 250 251 254 256
326 320 316 314 314 317 319 319 318 316 312 304 293 288 289 282 272 274 285 289 289 282 269 262 263 266 274 287 294 300 307 309 308 310 312 304 288 275 263 257 253 247 242 241 242 244 247 248 250 255 261 266 270 271 269 265 260 256 252 249 246 244 243 243 243 242 242 244 245 246 249 253 255 258 259 257 255 254 253 254 254 254 253 252 252
318 314 310 308 310 311 310 310 311 309 301 292 287 281 280 285 284 275 272 283 295 295 283 277 274 271 279 296 304 310 320 320 302 293 298 302 295 282 274 270 266 259 252 249 248 248 250 250 252 255 259 262 264 267 268 268 267 264 259 253 247 244 242 242 240 239 240 242 243 244 247 251 253 255 256 255 253 253 251 250 251 251 251 250 251
312 311 308 305 303 301 300 300 298 297 294 292 293 290 284 286 289 286 286 298 319 331 329 320 316 315 317 318 315 312 311 307 294 289 293 296 286 277 276 281 287 284 271 261 257 256 257 259 260 261 263 263 262 261 261 261 262 261 259 256 252 248 245 242 240 240 241 242 243 244 244 245 246 248 250 251 252 252 251 248 247 248 248 248 248
311 307 303 301 299 297 296 294 293 296 301 302 300 294 287 288 293 293 292 292 298 308 308 303 303 306 309 311 314 310 298 290 286 285 288 289 286 283 281 281 287 292 289 281 274 270 267 265 264 263 260 258 258 258 257 256 256 255 253 251 250 249 246 242 239 239 240 240 240 241 241 241 242 243 245 248 250 251 250 246 245 245 244 242 242
311 308 304 300 299 300 302 302 304 307 306 301 300 297 291 288 289 287 284 283 285 288 287 285 288 291 290 289 291 289 282 279 279 278 279 284 289 287 281 274 267 269 275 277 273 270 267 264 262 261 258 254 253 254 254 252 251 249 246 244 242 241 240 239 238 238 239 239 239 241 242 242 244 245 245 247 249 249 247 245 243 241 238 235 237
311 308 305 302 301 302 300 299 302 304 300 296 294 293 290 287 284 280 278 280 282 282 283 288 294 294 289 286 285 282 277 277 280 280 280 284 287 283 278 273 268 268 271 270 266 264 261 260 262 262 258 255 254 253 253 253 251 248 244 242 238 235 233 233 233 233 233 233 235 237 238 239 244 247 246 246 246 246 244 242 240 238 235 233 234
304 304 303 301 300 299 294 291 293 295 296 295 293 293 293 292 290 287 284 284 283 281 285 293 295 291 290 291 290 288 285 286 290 292 290 289 286 279 274 271 267 266 264 259 255 254 252 253 256 256 254 256 257 254 252 254 257 257 253 248 244 239 234 230 228 225 222 222 225 229 233 237 241 243 243 242 241 241 241 240 238 236 234 234 234
299 299 299 299 298 296 293 292 291 292 295 297 297 295 294 293 295 297 297 295 292 289 286 286 285 285 288 290 292 292 293 294 296 298 298 295 289 282 275 270 267 265 262 256 252 250 250 252 255 254 254 256 257 255 253 254 257 259 258 255 252 248 244 239 232 224 214 204 201 211 223 229 232 235 237 239 240 241 241 240 239 237 236 235 236
298 296 294 294 294 292 289 285 284 284 287 290 293 292 290 290 294 298 300 300 300 298 294 292 290 285 277 270 286 297 296 296 300 305 305 301 296 288 279 272 268 266 264 259 255 252 251 252 254 255 255 255 256 257 257 258 259 259 260 260 257 253 254 254 241 217 202 201 208 215 221 227 230 231 232 234 237 240 240 239 239 239 238 238 240
300 298 295 294 292 288 284 279 275 272 271 274 279 283 286 289 292 294 297 302 303 302 300 299 297 291 278 280 295 300 295 291 298 311 321 315 306 296 288 280 273 267 263 260 256 252 250 250 252 254 255 255 257 258 258 260 263 264 264 263 259 260 268 272 243 195 215 222 221 220 223 228 232 234 233 232 233 235 238 239 239 239 240 242 243
299 298 297 296 294 290 287 283 276 269 264 265 270 276 281 287 293 295 298 299 297 296 296 297 298 297 290 289 293 292 289 293 298 306 316 314 304 296 289 281 271 264 260 258 257 255 254 254 255 257 257 257 258 260 260 260 260 262 264 266 271 295 339 44 106 193 233 230 224 222 225 229 234 237 238 238 238 239 239 239 238 238 241 243 245
295 295 295 295 293 292 291 291 289 284 277 271 271 276 280 284 287 288 289 288 287 289 292 295 298 297 292 292 297 300 306 309 304 301 306 308 304 298 289 279 271 266 263 262 261 257 255 256 258 260 260 260 261 264 264 262 260 261 266 269 273 287 296 226 206 231 236 225 220 225 228 230 234 237 238 239 241 243 243 242 242 243 243 245 248
294 293 292 292 291 289 289 290 293 294 289 279 271 271 275 279 280 280 281 282 283 285 287 290 292 293 295 302 311 317 319 316 308 305 309 311 312 311 301 286 276 272 269 269 269 265 261 260 261 262 264 266 270 273 273 272 273 279 285 282 276 274 266 252 253 260 250 236 235 241 242 242 242 240 238 238 242 244 245 245 246 246 246 247 247
291 290 289 290 288 285 281 280 281 283 284 279 272 269 273 278 282 283 284 285 284 283 284 287 290 295 300 305 308 313 320 321 314 312 312 309 308 309 305 295 287 282 279 279 280 279 277 276 276 281 290 298 305 308 309 310 313 315 315 308 298 291 282 272 271 272 267 261 257 253 252 255 256 251 246 245 248 249 248 247 246 245 246 247 247
295 291 290 290 288 284 281 278 274 272 272 271 269 269 272 274 277 279 279 279 279 281 285 287 289 294 297 298 300 308 316 314 307 306 305 302 301 301 299 299 302 304 304 304 306 307 309 309 309 311 317 321 324 325 326 329 329 327 326 324 317 308 298 290 286 280 275 271 265 259 258 261 260 255 248 245 247 248 248 248 248 247 247 249 252
300 296 296 294 291 288 286 283 279 273 269 268 269 269 268 267 266 268 271 273 276 282 286 287 290 296 298 293 295 306 314 307 300 298 295 293 295 294 289 288 292 299 304 306 307 308 310 313 314 315 316 316 316 317 318 319 319 317 314 313 311 309 310 311 308 297 285 275 267 265 268 271 270 266 258 252 248 247 247 247 249 250 250 251 255
305 302 301 300 297 294 289 286 282 276 269 267 267 267 266 266 265 265 269 274 279 283 285 287 291 294 291 287 305 327 330 318 300 292 290 291 294 293 287 284 285 289 293 295 298 301 305 310 313 314 314 313 312 313 314 313 312 312 311 307 304 303 301 301 306 310 303 289 281 279 281 285 287 283 273 264 257 253 250 249 249 251 251 252 252
308 305 302 301 301 300 297 293 288 281 272 265 262 262 265 269 270 270 272 277 282 284 284 285 289 289 286 295 324 337 337 329 307 296 293 295 297 298 297 293 291 291 292 292 293 296 301 306 309 311 312 312 310 308 308 307 308 309 310 309 306 304 302 301 303 307 302 290 288 289 290 288 287 286 279 271 263 257 254 252 251 250 251 254 254
305 302 301 300 300 302 304 303 297 287 277 268 261 261 265 267 269 272 272 273 276 279 281 284 289 292 298 315 330 332 326 316 307 302 299 298 297 297 299 299 298 297 297 295 294 296 298 300 303 306 308 309 307 305 305 307 307 308 308 307 305 304 304 306 306 304 298 291 289 289 288 284 279 275 273 274 276 273 268 264 261 258 258 260 261
305 303 302 301 300 300 302 305 305 300 289 277 266 260 260 262 265 268 270 271 275 279 283 289 299 310 318 321 320 316 310 304 302 301 301 301 299 296 296 297 299 300 301 300 298 298 298 297 300 304 308 310 309 308 308 309 308 307 306 305 303 302 302 303 303 302 300 298 295 292 288 281 276 273 272 273 275 275 275 273 271 268 265 263 261
308 305 303 302 300 298 298 300 303 304 302 295 286 276 267 264 265 267 271 277 281 285 289 300 317 326 324 313 304 302 301 299 299 300 300 299 297 296 295 294 295 299 302 302 302 302 302 301 302 305 310 314 317 318 316 314 312 309 305 300 297 295 294 294 295 295 297 299 298 294 286 276 271 272 273 272 271 272 272 272 271 268 266 264 262
307 303 300 300 299 299 301 304 305 304 304 303 297 289 281 275 272 270 272 276 278 282 297 312 320 321 316 307 300 299 299 298 297 298 298 296 296 296 296 294 295 297 298 298 300 301 302 303 304 307 313 321 327 328 326 320 314 309 304 298 295 293 292 292 293 293 295 296 293 287 282 277 274 272 271 270 271 272 272 271 271 271 271 271 271
303 299 296 295 295 296 299 304 306 306 304 300 296 291 288 287 287 286 286 282 277 281 303 317 320 316 310 303 299 296 295 295 295 294 294 295 295 295 295 295 297 298 297 296 301 307 316 324 328 332 339 344 341 336 331 325 318 312 308 305 304 304 303 301 301 303 305 307 301 289 282 279 278 279 277 273 272 271 270 269 271 271 272 274 277
303 300 297 295 294 293 293 294 296 299 302 302 301 300 301 301 303 305 303 296 291 297 311 316 314 307 300 296 294 291 290 291 291 291 292 295 296 296 297 298 299 301 301 303 311 327 348 356 357 2 10 9 1 349 342 339 335 331 329 328 327 326 323 320 320 322 325 324 312 297 290 285 284 287 286 277 270 268 267 268 272 274 277 285 294
309 307 304 302 300 298 295 292 291 292 295 297 299 302 307 312 319 322 318 306 300 305 310 308 304 299 293 289 288 288 287 288 288 289 292 296 297 298 301 301 301 304 308 313 320 330 352 4 6 19 34 29 19 8 3 1 357 351 346 342 337 334 331 330 331 332 335 332 312 298 291 292 299 316 8 130 199 191 132 53 26 32 34 34 39
317 314 312 310 310 309 305 301 296 295 296 298 302 307 315 323 331 333 329 317 301 298 301 301 296 289 284 283 285 285 286 286 286 287 292 297 303 309 310 311 315 323 327 332 340 349 1 8 12 30 51 49 41 33 28 24 19 9 358 349 344 342 344 350 360 15 46 54 43 61 97 100 96 93 92 91 91 90 89 87 83 81 81 79 79
Height
808 810 811 814 816 818 820 821 822 824 824 824 825 825 826 826 828 829 831 832 834 835 837 837 839 840 840 842 842 843 845 845 847 848 849 850 851 852 853 853 854 855 856 857 857 858 858 859 860 860 861 861 861 862 862 863 863 863 864 864 864 865 865 865 865 864 864 864 863 862 862 862 861 861 861 860 860 860 860 860 859 859 858 856 856
809 808 811 814 815 817 819 820 822 823 823 824 824 824 825 825 826 827 829 830 832 833 835 836 837 838 839 840 841 842 843 844 845 846 847 849 849 850 851 851 853 853 854 855 856 856 857 857 858 859 860 860 860 861 861 861 862 862 862 863 863 863 863 864 864 863 863 863 863 862 862 861 861 860 860 860 859 859 859 859 858 858 857 855 854
808 806 810 813 814 816 818 819 820 822 822 823 823 823 824 824 824 825 826 828 830 831 833 834 835 837 838 839 839 840 842 842 843 844 845 846 847 848 849 849 851 852 852 853 854 855 855 856 856 857 858 858 859 860 860 860 860 860 860 861 861 861 862 862 862 862 862 862 862 861 861 860 860 859 859 859 858 858 858 857 857 857 856 855 854
806 806 809 811 810 813 817 818 818 820 820 821 822 822 822 823 823 824 824 826 827 828 830 831 833 835 836 837 838 839 840 840 842 843 843 845 845 847 847 848 849 850 851 852 852 853 854 854 855 855 856 856 857 858 858 859 859 859 859 859 859 860 860 861 861 861 861 860 860 860 860 859 859 859 858 858 857 857 856 856 856 855 855 855 854
805 806 808 808 807 808 813 817 818 817 818 818 819 820 820 821 821 822 823 824 824 826 828 829 830 832 834 835 836 837 838 839 840 841 842 843 844 845 846 846 847 848 849 850 850 851 852 852 853 853 854 854 855 856 856 857 857 857 857 858 858 858 859 859 859 859 859 859 859 859 859 859 858 858 857 857 856 856 855 855 855 854 853 853 853
803 803 804 805 806 805 807 812 816 816 816 816 817 817 818 819 820 821 821 822 823 824 825 827 828 829 831 833 834 835 837 838 839 840 841 841 842 843 844 845 846 846 847 848 848 849 850 850 851 851 852 853 853 854 854 855 855 855 856 856 856 857 857 857 858 858 858 858 857 857 857 857 857 856 856 856 855 854 854 854 853 853 852 852 851
801 801 802 803 805 804 804 808 813 815 815 814 815 815 816 817 817 818 820 821 821 822 823 825 826 827 829 831 832 834 835 836 837 838 839 840 840 841 842 843 844 845 845 846 847 847 848 848 849 849 850 850 851 852 852 853 853 853 854 854 855 855 855 856 856 856 856 856 856 856 855 855 855 854 854 854 853 853 852 852 851 851 851 850 850
800 801 801 803 805 804 804 808 813 817 817 815 814 814 814 815 815 816 818 819 820 821 821 823 824 826 827 829 830 832 833 834 835 835 836 837 838 839 840 841 841 842 843 844 844 845 845 846 846 847 848 848 849 850 850 850 851 851 852 852 853 853 854 854 855 855 854 854 854 854 854 853 853 853 853 852 852 851 851 851 850 849 849 849 849
799 799 800 801 803 804 804 808 815 820 819 817 815 814 813 813 814 815 816 818 819 820 820 821 822 824 826 827 829 830 831 831 832 833 834 835 836 836 837 838 838 839 840 841 841 842 843 843 844 844 845 845 846 846 847 848 849 849 850 850 851 851 852 852 853 853 853 852 852 852 852 852 851 851 851 850 850 849 848 848 847 847 847 847 847
798 799 799 799 801 802 803 807 814 819 819 818 817 816 815 814 814 815 815 816 818 819 820 820 821 822 823 825 827 828 828 828 829 830 831 832 833 834 834 834 835 836 836 837 838 839 839 840 841 841 842 842 842 843 844 845 846 847 848 848 849 849 849 850 850 851 851 851 851 851 850 850 850 850 849 848 847 847 846 846 845 845 845 845 844
798 799 799 800 801 803 804 807 811 815 816 817 818 818 818 817 816 816 816 816 817 817 818 819 819 820 821 822 824 825 826 826 826 827 828 829 830 831 831 832 832 833 833 834 834 835 836 836 837 838 839 839 840 840 841 842 843 844 845 845 846 847 847 847 848 848 849 849 849 849 849 848 848 848 847 846 846 845 845 845 844 844 844 843 842
800 800 800 801 802 804 805 807 809 811 813 814 814 816 819 820 820 818 817 816 816 816 817 817 818 818 819 819 821 822 823 823 824 824 825 826 828 829 829 830 830 830 831 831 832 832 832 833 834 834 835 836 837 837 838 840 840 841 842 842 843 844 844 845 845 845 846 846 846 846 846 846 845 845 845 845 844 844 844 843 843 843 842 842 841
801 801 801 802 803 804 805 805 807 809 809 810 809 810 814 818 819 819 818 817 816 816 816 816 816 817 817 817 818 818 820 821 821 822 822 822 824 825 826 827 827 828 828 828 829 830 830 831 831 831 832 832 833 834 834 836 837 837 838 839 840 840 841 841 842 842 843 843 843 843 843 843 843 843 843 843 843 843 842 842 842 841 841 840 840
802 802 802 803 803 804 805 805 806 807 807 807 807 808 809 810 812 813 813 813 814 813 814 814 815 816 816 816 816 816 817 817 818 819 819 819 820 821 822 824 824 825 825 825 826 827 827 828 828 828 829 829 830 831 831 832 833 834 835 835 836 836 837 838 838 839 840 840 840 839 839 840 839 839 840 841 841 841 840 840 840 839 839 839 838
804 804 804 804 804 804 804 804 806 806 805 805 805 807 808 808 808 808 808 809 811 811 811 812 813 814 815 815 815 814 815 815 815 816 816 817 818 819 819 820 821 821 822 822 823 823 824 824 825 825 826 826 827 828 829 829 830 831 831 831 832 832 833 833 834 835 836 836 835 835 835 835 836 835 836 837 838 838 838 838 838 838 837 837 836
805 805 805 805 805 804 804 804 805 805 805 804 803 805 806 807 808 808 808 809 810 811 810 810 811 813 814 815 815 814 814 814 814 813 814 814 815 816 817 818 818 819 819 819 820 820 820 821 821 821 822 822 823 824 825 827 827 827 828 828 828 828 828 829 830 830 831 831 831 831 831 832 832 832 833 834 834 835 836 836 836 836 835 834 833
806 806 806 805 805 805 805 804 804 804 804 804 803 803 804 804 805 806 807 808 808 809 809 809 809 810 811 813 815 814 813 813 813 812 812 813 813 813 814 814 815 816 816 817 817 818 818 818 818 818 818 818 819 820 822 823 824 824 824 824 825 824 824 825 826 826 826 827 827 827 827 828 828 829 829 830 831 833 834 834 833 834 833 832 831
807 806 806 806 806 806 805 804 804 804 803 803 803 803 802 803 802 802 803 803 804 805 805 806 807 806 805 806 809 811 812 812 811 810 810 811 811 810 811 812 813 813 813 814 815 815 816 816 816 816 815 815 816 817 819 820 820 821 821 821 821 820 820 822 823 823 822 822 823 823 823 824 825 825 826 827 828 830 831 831 831 832 832 830 829
808 807 807 806 806 806 805 804 803 803 802 802 802 802 802 801 800 799 799 799 799 801 801 803 804 804 804 803 801 803 806 808 809 808 807 808 808 807 808 809 809 810 811 811 812 812 813 813 813 813 813 813 814 815 816 817 817 817 817 818 817 816 816 819 820 820 820 819 819 819 820 820 821 822 822 824 825 826 828 828 829 830 829 828 828
808 808 808 807 807 806 804 803 803 802 802 802 801 801 801 800 799 799 798 798 798 799 800 802 802 803 804 803 800 799 799 802 804 804 804 804 804 804 805 805 806 807 808 809 809 810 810 810 809 809 810 810 811 812 813 814 813 813 814 815 813 812 813 816 816 817 817 817 816 816 816 817 818 818 818 819 820 822 823 824 826 826 826 825 825
808 808 807 806 807 806 805 804 803 802 802 801 801 801 800 800 799 798 798 799 798 799 800 801 801 801 801 801 801 800 799 799 800 800 800 800 800 800 801 801 802 804 805 806 807 807 807 806 806 806 806 806 807 808 809 810 810 810 810 810 809 809 811 813 813 814 814 814 814 814 813 813 814 814 815 815 816 817 818 819 820 821 822 821 821
808 808 807 806 806 805 804 804 803 801 801 800 800 800 800 800 799 798 798 798 798 799 801 801 800 799 798 798 798 798 798 798 798 798 798 797 797 797 797 798 799 801 803 803 804 804 804 804 803 803 803 802 803 803 804 805 805 805 805 805 806 807 808 809 810 810 811 811 811 811 811 811 811 810 811 811 812 813 813 814 815 815 816 817 816
808 807 807 806 806 805 804 803 802 801 800 799 798 798 798 799 799 798 797 796 796 798 799 800 799 798 797 796 795 795 796 796 796 798 799 798 796 795 794 795 797 799 800 800 801 801 801 801 801 801 800 800 799 799 799 800 800 800 800 801 802 804 805 806 806 807 807 807 807 807 807 808 808 808 808 808 808 808 809 809 809 809 810 810 810
807 807 806 806 805 804 803 802 801 800 799 798 797 796 795 796 798 798 797 795 794 795 796 797 797 796 796 795 794 793 794 794 795 798 802 803 801 798 796 796 796 797 797 797 798 798 798 799 798 798 797 797 796 796 796 796 795 795 796 797 799 800 801 802 802 802 803 803 803 803 803 804 805 804 804 805 805 805 805 805 805 805 804 804 805
806 806 805 804 804 803 802 801 800 799 798 797 796 795 794 795 796 798 798 795 793 793 793 793 793 793 795 794 793 793 794 794 795 799 803 803 802 799 797 794 794 794 793 793 793 794 794 794 794 794 793 793 793 793 792 792 792 792 792 794 795 796 796 797 797 798 799 798 798 798 798 799 800 800 800 802 802 802 801 801 801 802 801 800 800
805 805 804 803 802 802 801 800 799 798 797 796 795 793 793 793 794 796 797 795 792 790 790 790 790 791 792 791 791 791 792 793 795 797 799 799 798 796 794 791 790 790 789 789 790 790 789 789 788 789 789 789 790 789 789 789 789 789 789 790 790 790 791 792 792 793 793 793 794 794 794 795 796 797 797 797 797 796 797 797 797 798 798 798 797
805 804 803 802 801 801 800 799 798 797 796 795 794 793 792 791 791 792 793 793 790 788 788 789 789 790 789 788 788 789 790 790 791 792 794 795 795 795 793 790 789 788 788 788 787 786 786 785 785 784 785 785 786 785 785 785 785 785 785 785 785 785 786 786 787 787 788 788 789 790 790 791 792 792 792 792 791 790 792 793 793 793 794 794 794
804 803 802 801 800 799 798 797 797 796 795 794 794 793 792 791 790 789 789 789 788 787 788 788 789 789 788 787 787 788 789 788 787 789 791 792 792 792 790 789 788 787 786 784 783 782 782 782 781 780 780 780 780 780 780 780 780 780 780 779 780 780 781 782 783 783 783 784 786 786 787 787 787 787 787 787 786 786 788 789 788 788 789 790 790
802 802 801 800 799 798 797 796 795 794 794 793 793 792 792 791 790 789 788 788 788 788 788 789 790 790 789 789 790 790 789 788 787 787 788 789 789 789 789 788 788 786 784 782 781 780 779 779 778 777 776 776 776 775 775 775 775 775 774 774 774 775 776 777 778 778 779 781 783 783 783 783 782 782 782 782 781 782 783 783 783 783 784 784 784
801 800 799 798 797 796 795 795 794 793 793 793 792 791 790 790 790 789 788 787 788 789 789 790 790 789 788 788 789 790 789 788 787 787 786 787 788 789 788 786 785 783 782 781 780 778 777 777 775 774 773 773 772 771 771 771 771 770 769 769 770 770 771 772 772 773 776 778 779 780 781 781 779 779 780 778 777 777 777 777 777 777 778 778 777
801 799 798 798 797 796 795 794 793 793 793 792 791 790 789 788 788 788 787 786 787 787 788 788 788 787 786 786 786 786 787 786 786 785 784 785 786 786 784 782 780 779 779 778 776 775 774 774 772 771 771 770 768 768 768 768 767 766 766 765 765 765 765 766 767 769 772 774 776 777 777 777 777 777 775 772 770 769 770 770 771 771 771 771 770
800 799 798 797 796 795 794 793 792 792 791 791 790 789 787 786 785 785 785 786 785 786 786 786 785 785 784 784 783 783 782 782 782 781 780 781 782 781 779 777 776 775 775 774 772 770 770 770 768 767 767 767 765 764 765 764 764 763 762 762 762 761 761 761 762 764 767 769 771 774 775 775 774 770 766 763 763 764 765 765 765 765 764 764 764
799 798 797 796 795 794 793 792 791 791 790 789 789 788 787 785 783 782 782 783 783 783 783 783 783 782 782 781 781 780 779 779 778 778 777 777 777 777 775 773 772 771 771 769 767 765 765 765 764 763 763 763 762 762 762 761 760 760 759 758 758 757 757 758 758 759 763 767 770 771 769 765 760 755 755 758 761 762 761 760 760 760 760 759 759
797 796 796 795 794 793 792 791 790 789 789 788 788 787 786 784 782 781 779 779 779 780 780 780 780 779 778 778 778 778 777 776 775 775 775 774 774 773 772 770 769 768 766 764 762 761 761 761 760 759 759 759 759 759 758 758 757 757 756 755 754 754 755 755 755 759 764 766 764 760 755 751 748 748 753 757 758 757 755 755 755 756 755 754 754
795 794 794 793 792 791 790 789 787 787 786 786 786 785 784 783 781 780 779 777 776 776 776 777 777 776 776 775 775 775 773 772 772 772 771 771 770 770 769 768 767 765 763 761 759 758 758 758 757 756 755 755 755 755 755 754 754 753 752 751 751 751 752 753 756 761 763 759 753 751 750 749 748 749 751 752 752 751 750 750 750 750 750 750 750
793 792 792 791 791 789 787 786 785 784 784 783 783 783 782 781 780 779 778 777 776 774 773 773 773 773 773 772 772 771 770 769 769 768 768 767 767 766 765 765 765 763 761 759 757 756 755 755 753 752 752 751 750 750 750 750 749 749 748 748 749 751 753 754 756 757 755 752 750 750 750 749 747 747 747 747 747 746 745 745 745 745 745 746 746
792 791 790 790 789 788 786 784 783 782 781 781 780 780 780 780 779 778 777 776 774 773 772 771 771 770 769 769 768 768 767 767 766 766 765 764 763 763 762 762 762 761 759 757 756 754 752 751 749 748 748 747 746 746 745 745 745 744 744 744 745 747 747 747 747 745 744 744 744 744 742 742 743 743 743 742 741 741 741 741 742 741 741 742 742
790 789 788 788 787 786 785 783 781 780 780 778 778 778 778 777 777 776 775 773 772 771 770 769 768 768 767 766 766 766 765 765 764 763 762 761 760 759 758 758 758 757 756 754 754 752 750 748 746 745 744 744 743 742 741 741 741 740 740 740 741 741 742 743 742 741 742 743 742 741 740 741 741 741 741 741 740 738 738 738 738 738 737 738 738
788 787 786 786 785 784 783 781 779 778 778 777 776 776 775 775 775 774 773 772 770 769 768 767 766 766 765 765 764 764 764 764 763 762 761 760 758 757 756 755 755 754 753 752 751 749 748 746 744 743 742 741 740 739 738 738 737 737 737 737 737 738 739 740 739 739 740 742 743 743 744 743 741 742 743 743 741 738 735 734 733 733 733 733 733
786 785 784 783 782 781 779 778 777 775 775 774 773 773 773 773 773 773 772 770 769 767 766 765 765 765 764 763 762 762 763 763 763 761 760 759 757 756 755 754 752 751 750 749 748 747 746 744 742 741 740 739 738 737 736 735 735 734 734 734 734 734 735 735 735 734 736 737 738 739 738 735 734 736 738 738 736 734 733 732 730 729 729 729 729
785 783 782 781 780 779 777 776 774 773 772 771 771 770 770 771 771 771 770 768 766 765 765 764 764 763 762 761 761 761 761 761 761 761 759 758 756 755 753 752 750 749 747 746 745 744 744 742 741 739 738 736 735 734 734 734 734 733 732 732 732 732 732 733 733 733 733 733 734 733 731 729 730 731 732 732 732 732 731 729 727 726 726 726 726
783 782 780 779 778 776 775 773 772 770 770 769 768 768 768 768 768 768 767 766 765 764 763 763 763 762 761 760 759 759 759 759 759 759 758 757 755 753 752 750 748 747 746 744 743 742 741 740 739 738 736 735 734 732 732 731 731 731 730 730 730 730 730 730 731 731 731 730 730 730 729 729 729 730 731 731 731 729 726 724 723 723 723 722 722
782 780 778 777 775 774 772 771 770 768 767 766 766 766 766 766 765 765 764 764 763 762 762 761 761 761 760 759 757 757 758 758 758 757 756 755 754 752 751 749 747 745 744 742 741 740 739 737 737 736 735 734 733 731 731 730 729 728 728 727 727 727 727 727 728 729 729 728 728 727 726 726 726 727 729 729 728 725 722 719 718 718 718 717 717
781 778 777 775 773 771 770 768 767 767 766 765 763 763 763 763 762 762 762 761 761 760 760 759 759 759 759 757 757 757 758 758 757 756 755 754 753 751 750 748 745 743 741 740 739 738 736 735 734 733 733 732 731 730 729 728 727 726 725 725 724 724 724 724 724 725 726 726 725 725 725 724 724 723 724 724 722 720 718 716 715 714 713 713 712
779 777 775 773 771 769 767 765 765 765 765 764 761 759 759 759 759 759 759 759 758 757 757 757 758 758 757 756 757 759 759 758 757 756 754 753 752 750 749 747 744 742 740 738 737 736 734 733 732 731 730 730 729 728 727 726 725 724 723 723 722 721 721 720 721 721 721 721 721 721 721 721 721 719 718 717 716 715 714 713 712 711 710 709 708
778 776 774 772 769 767 765 763 762 762 762 761 759 757 756 756 755 756 756 756 756 756 755 756 756 756 756 756 758 759 758 757 756 755 753 752 751 749 747 746 744 742 739 738 736 734 733 732 731 729 727 726 726 726 725 724 723 722 721 720 719 718 717 717 716 716 715 715 715 715 716 716 716 715 713 712 711 710 709 708 708 707 706 705 704
777 775 773 771 768 766 764 762 761 760 759 759 758 757 756 754 753 753 753 753 754 754 754 754 754 755 755 757 758 758 757 757 755 754 752 751 749 748 746 745 743 741 739 737 735 733 732 731 729 727 725 723 723 724 723 722 721 720 719 717 716 715 714 713 712 711 711 710 710 710 711 711 710 710 709 708 707 706 705 705 704 703 702 701 700
776 774 772 769 767 765 763 761 760 759 758 757 757 756 755 753 751 751 751 751 752 752 751 752 753 754 755 757 758 757 757 756 754 753 752 750 748 747 745 744 742 741 739 737 735 733 732 731 729 726 724 722 722 722 722 722 720 719 717 715 714 712 711 709 708 707 706 706 706 706 706 706 705 705 705 704 704 703 702 701 701 700 699 698 697
774 772 770 767 765 764 762 760 759 757 757 756 755 754 753 752 751 750 750 750 750 750 750 751 752 754 755 757 757 757 756 754 753 752 750 749 747 746 744 743 742 740 738 737 735 734 732 730 728 726 724 723 722 721 722 721 720 718 716 714 713 711 709 708 706 705 704 703 703 703 703 702 701 701 701 701 701 700 700 699 699 698 697 696 695
773 771 769 766 764 762 761 759 757 756 755 755 754 753 752 751 750 750 749 749 749 750 750 751 752 754 755 756 756 755 754 753 752 750 749 747 746 744 743 742 741 740 738 737 735 734 732 730 727 726 725 724 722 722 721 721 719 718 716 714 713 711 709 707 705 704 703 702 702 701 700 700 700 699 699 699 699 698 698 698 698 697 697 696 695
772 770 768 766 763 762 760 758 756 755 754 753 753 752 752 750 749 749 749 749 749 750 751 751 752 753 754 754 754 754 753 752 751 749 748 746 745 743 743 742 741 739 738 737 735 733 731 729 727 726 725 724 723 722 721 720 719 718 717 715 714 712 710 708 705 704 703 702 701 701 700 700 699 699 699 699 698 698 698 698 698 698 698 698 698